Location: Cicognara
(44.9500°N, 10.4667°E)
Time: 09:32:14
(UTC+00:00)

Cosmos 1452 Rocket - Pass Details

Date: 20 June 2021
Orbit: 768 x 774 km, 74.1° (Epoch: 04 August)

Event Time Altitude Azimuth Distance (km) Brightness Sun altitude
Rises 20:11:34 0° 214° (SW) 3,237 6.6 -9.3°
Reaches altitude 10° 20:14:00 10° 219° (SW) 2,314 5.9 -9.6°
Maximum altitude 20:19:07 51° 296° (WNW) 967 4.5 -10.2°
Drops below altitude 10° 20:24:16 10° 12° (NNE) 2,326 6.5 -10.8°
Sets 20:26:43 0° 18° (NNE) 3,256 7.2 -11.0°
